Temperature
14 14 14 13 13 13 13 13 13 13 12 11 10 10 11 11 11 10 10 11 11 11 11 11 11 11 10 10 10 10 10 10 10 9 9 9 9 9
14 13 13 13 13 13 13 13 13 13 12 11 11 10 11 10 11 10 10 10 11 11 11 11 10 10 10 10 10 10 10 10 9 9 9 9 9 9
13 13 13 13 13 13 13 12 12 12 12 11 11 10 10 10 10 10 10 10 10 10 10 10 10 10 10 10 9 9 9 9 9 9 9 9 9 9
13 13 13 13 13 13 13 12 12 12 12 11 11 10 10 10 10 10 10 10 10 10 10 10 10 10 10 9 9 9 9 9 9 9 9 8 8 8
13 13 13 12 12 13 12 12 12 12 12 11 11 11 10 10 10 10 10 10 9 10 10 10 10 9 9 9 9 9 9 9 9 8 8 8 8 8
13 13 12 12 12 12 12 12 12 12 11 11 11 10 10 10 10 10 10 9 9 9 9 9 9 9 9 9 9 9 9 8 8 8 8 8 8 7
13 12 12 12 12 12 12 12 12 11 11 11 11 10 10 10 10 10 10 9 9 9 9 9 9 9 9 9 9 9 8 8 8 8 8 8 7 7
12 12 12 12 12 12 12 12 12 11 11 11 11 11 10 10 10 10 10 9 9 9 9 9 9 8 8 8 8 8 8 8 8 8 7 7 7 7
12 12 12 12 12 12 12 12 12 12 11 11 11 10 10 10 10 10 9 9 9 9 9 8 8 8 8 8 8 8 8 8 7 7 7 7 7 7
12 12 12 11 11 11 11 11 11 11 11 11 11 10 10 10 10 10 9 9 9 9 9 8 8 8 8 8 8 8 8 7 7 7 7 6 6 6
12 12 11 11 11 11 11 11 11 11 11 11 11 10 10 10 10 10 9 9 9 8 8 8 8 8 8 8 8 8 7 7 7 7 6 6 6 6
12 12 12 11 11 11 11 10 10 10 10 10 10 10 10 10 10 9 9 8 8 8 8 8 7 7 7 7 7 7 7 7 6 6 6 6 6 5
11 11 11 11 11 11 10 10 10 10 10 10 10 10 9 9 9 9 9 8 8 8 7 7 7 7 6 6 6 6 6 6 6 6 6 5 5 5
11 11 11 11 11 10 10 10 10 10 9 9 9 9 9 9 9 9 8 8 8 8 7 7 7 6 6 6 6 6 6 5 5 5 5 5 5 5
11 11 10 10 10 10 10 10 9 9 9 9 9 9 9 8 8 8 8 8 8 7 7 7 7 6 6 5 5 5 5 5 5 5 5 5 4 4
10 10 10 10 10 9 9 9 9 9 9 9 8 8 8 8 8 8 7 7 7 7 7 6 6 6 6 5 5 5 5 4 4 4 4 4 4 4
10 10 10 9 9 9 9 9 9 9 9 8 8 8 8 8 7 7 7 7 6 6 6 6 6 6 5 5 5 5 5 4 4 4 4 4 4 3
9 9 9 9 9 9 9 9 8 8 8 8 8 8 7 7 7 7 7 6 6 6 6 5 5 5 4 5 5 4 4 4 4 3 3 3 3 3
9 9 8 8 8 8 8 8 8 8 8 8 7 7 7 7 7 6 6 6 6 5 5 5 4 4 4 4 4 4 4 4 3 3 3 2 3 3
9 9 8 8 8 8 8 8 8 7 7 7 7 7 7 6 6 6 6 5 5 5 5 5 4 4 3 3 3 3 3 3 3 2 2 2 2 2
8 8 8 8 8 8 7 7 7 7 7 7 7 6 6 6 6 6 5 5 5 4 4 4 4 4 3 3 3 3 3 3 2 2 2 1 1 1
8 8 8 8 8 7 7 7 7 7 6 6 6 6 5 5 5 5 5 4 4 4 4 4 3 3 3 2 2 2 2 2 2 2 2 1 1 0
8 8 8 7 7 7 7 6 6 6 6 6 5 5 5 5 5 5 4 4 4 3 3 3 3 3 2 2 2 2 2 2 2 1 1 1 1 1
Wind_Speed
1 1 1 1 1 1 2 2 2 2 2 2 2 2 2 3 3 2 4 7 6 6 6 6 7 6 6 6 6 7 7 7 7 8 8 8 8 8
1 1 1 2 2 1 1 1 1 1 1 2 2 3 3 3 2 2 3 6 5 4 4 4 4 5 5 5 5 5 5 5 6 6 6 7 7 7
2 2 2 2 2 2 1 1 1 1 2 3 3 3 3 2 3 2 2 2 3 3 2 2 3 3 3 3 3 3 4 4 4 5 5 6 6 7
2 2 2 2 2 2 1 2 2 2 3 4 3 3 3 2 2 2 1 1 1 3 2 1 1 1 2 2 2 2 2 3 3 4 4 5 6 6
2 2 2 3 2 2 2 2 2 2 2 3 3 2 3 2 2 2 2 2 1 2 3 3 2 1 1 1 2 2 2 2 3 3 4 4 5 6
2 2 2 3 3 3 2 2 2 3 3 3 3 3 3 3 3 2 2 2 2 2 2 2 3 4 3 2 2 2 2 3 3 3 3 3 4 5
3 3 2 2 2 1 1 2 2 2 3 3 3 3 3 3 3 3 3 3 3 3 3 3 3 3 3 4 3 3 3 3 3 3 3 3 4 5
4 3 3 4 4 3 1 1 1 2 3 3 3 4 4 3 3 3 3 3 3 2 4 3 3 3 3 3 2 3 4 4 4 4 4 5 5 6
4 4 3 3 4 4 5 5 2 1 2 3 3 3 3 3 4 4 4 4 4 2 3 4 3 4 4 3 2 3 4 5 5 6 6 7 8 8
5 5 5 5 5 4 4 4 3 3 3 3 3 3 3 3 4 4 4 5 4 2 3 4 4 4 3 4 3 5 6 6 6 7 8 8 9 10
5 5 5 5 5 5 5 4 4 3 3 3 2 1 1 2 3 3 4 4 4 3 2 3 4 5 4 4 3 5 7 7 7 7 8 9 10 11
4 5 5 5 6 7 6 5 5 4 4 4 4 4 5 5 6 5 4 4 4 3 2 3 3 3 4 3 3 4 5 6 8 8 9 9 10 10
5 5 5 7 7 7 7 5 4 4 4 3 3 3 3 3 4 5 4 4 4 3 1 3 4 4 4 4 4 4 4 5 6 7 9 9 9 9
5 5 4 8 7 7 6 4 3 4 4 4 3 3 3 3 3 4 5 5 5 5 3 3 3 4 5 6 5 4 4 5 6 6 7 8 10 12
4 3 3 6 6 6 6 6 6 5 4 4 4 4 3 3 3 3 4 4 5 5 5 5 5 5 6 6 6 6 6 5 5 6 7 7 7 7
5 5 6 6 6 4 5 6 6 5 5 4 4 3 2 3 3 3 3 3 3 4 4 6 6 6 6 7 7 7 7 5 5 6 7 7 8 8
5 4 4 5 5 5 4 5 5 5 5 4 4 4 4 4 4 3 3 4 4 4 3 3 4 5 6 7 7 7 7 7 7 7 7 8 7 7
5 5 5 5 5 5 5 5 4 4 5 4 4 4 4 4 4 3 4 4 4 4 4 3 3 3 4 5 6 7 7 7 7 7 7 8 9 8
6 5 5 5 5 5 5 4 4 4 3 4 4 4 4 4 4 4 4 4 5 5 4 4 4 4 6 7 4 6 7 7 7 7 7 8 9 9
6 6 6 5 5 5 4 4 4 4 4 4 4 4 4 4 4 5 4 5 5 5 5 4 5 5 6 8 7 6 6 7 7 8 8 8 9 9
6 6 5 5 5 4 4 4 4 4 4 4 4 4 4 4 4 4 4 4 5 5 5 5 4 5 5 5 6 6 5 7 9 8 8 8 9 8
6 6 5 5 5 5 5 5 5 4 5 4 4 4 4 4 5 5 4 4 4 5 6 5 4 4 4 6 8 8 8 7 7 11 11 10 7 7
6 6 6 5 5 5 5 6 6 5 5 5 4 4 4 4 4 4 4 5 5 5 5 5 4 4 5 6 7 8 9 9 7 6 7 8 12 15
Wind_Direction
130 127 128 124 145 165 183 212 231 194 159 148 148 111 92 78 74 92 91 88 80 73 67 61 57 53 51 54 51 46 43 39 37 35 34 30 27 29
89 126 119 124 123 148 180 211 246 232 152 137 149 145 126 116 101 91 86 98 88 83 74 67 60 53 51 51 47 42 41 37 33 29 28 24 23 21
132 119 115 121 141 142 151 161 168 166 158 143 145 152 157 160 134 130 118 122 107 110 92 74 61 51 48 42 36 33 30 28 24 19 19 16 14 12
139 137 134 126 135 149 157 156 149 166 175 163 165 171 178 177 178 181 181 166 129 122 135 110 66 41 35 23 11 4 1 4 4 6 5 1 0 2
170 159 156 155 155 139 159 161 151 152 168 175 171 173 192 195 196 204 207 215 221 171 175 191 198 233 308 332 339 333 334 335 336 336 337 341 347 353
179 176 174 172 170 151 154 159 158 158 165 177 180 186 195 203 215 220 219 212 233 228 207 211 201 209 226 261 295 304 305 304 305 308 316 328 336 339
188 186 165 112 59 107 157 163 169 178 181 189 193 196 204 206 222 228 235 241 235 238 244 238 230 238 230 229 250 278 282 287 291 294 299 305 311 317
193 189 172 170 155 152 128 45 331 211 207 208 214 217 222 221 227 236 237 244 249 230 251 254 246 254 259 264 254 248 262 270 273 276 280 285 291 298
201 196 186 178 183 182 167 172 187 246 275 255 232 237 242 232 227 235 240 251 263 270 259 258 251 257 259 261 225 234 250 263 270 275 278 280 285 291
212 211 205 201 201 204 199 198 206 202 211 227 240 251 260 249 236 244 250 253 253 247 253 262 264 264 265 263 212 227 244 253 263 272 277 280 283 285
214 214 217 213 167 190 209 213 219 217 189 213 282 282 293 267 253 238 235 241 252 245 236 263 275 275 261 252 238 217 231 242 256 268 276 281 284 282
216 212 213 217 179 192 212 218 225 230 222 204 212 223 229 217 219 232 239 242 253 251 223 242 265 277 271 249 260 258 251 246 246 253 264 274 284 284
219 216 205 183 192 205 227 232 233 242 236 233 232 233 229 221 217 223 233 246 252 253 253 238 262 265 271 282 277 269 272 278 269 261 256 257 263 267
228 224 199 173 191 208 221 211 204 224 230 226 227 233 235 229 224 222 227 234 248 260 264 256 266 274 276 280 284 280 276 278 279 281 281 264 250 244
226 206 180 176 193 209 206 201 208 220 223 227 232 239 240 234 226 221 223 228 243 250 255 252 255 263 267 274 282 285 287 285 280 282 283 282 281 277
216 183 178 187 206 210 202 205 216 220 222 227 232 234 227 221 223 225 229 229 243 254 254 253 255 260 264 270 274 279 282 282 285 283 282 282 281 277
200 194 196 199 209 212 214 214 213 211 217 222 224 229 231 231 231 230 235 239 247 257 261 256 255 257 263 272 273 275 278 281 284 288 287 285 282 280
193 207 209 214 219 220 217 216 216 216 219 219 219 224 229 231 232 231 231 241 250 256 263 268 265 269 269 261 245 272 281 286 290 288 284 284 285 286
205 215 217 220 223 224 222 219 220 219 220 220 220 224 228 230 232 234 236 243 251 259 264 267 263 265 274 284 265 231 273 287 291 288 285 284 286 290
219 221 221 221 223 223 222 220 220 218 220 224 225 225 226 230 234 237 239 246 254 260 263 261 259 261 268 279 288 286 245 271 284 286 289 289 288 287
219 222 221 220 220 220 223 221 218 218 222 225 228 231 231 233 240 244 246 249 257 264 267 270 270 258 269 279 283 286 283 251 260 276 288 291 295 292
217 219 219 219 218 218 218 218 220 221 223 226 228 230 234 238 240 243 246 251 257 263 271 278 275 263 262 269 278 288 294 293 265 255 259 268 286 291
215 215 216 216 217 216 216 217 219 222 224 226 228 232 236 241 247 248 249 255 262 270 275 278 276 271 269 271 278 285 291 297 297 291 282 262 259 270
Height
1561 1561 1561 1561 1561 1562 1562 1563 1565 1564 1565 1564 1563 1562 1562 1561 1561 1561 1560 1558 1557 1556 1555 1554 1553 1552 1551 1550 1549 1548 1547 1545 1544 1542 1540 1539 1536 1534
1560 1560 1560 1560 1560 1560 1561 1561 1562 1563 1563 1563 1562 1562 1561 1561 1560 1560 1559 1558 1557 1556 1555 1554 1553 1552 1551 1550 1549 1548 1546 1545 1543 1542 1540 1539 1537 1535
1559 1559 1559 1559 1560 1560 1560 1560 1560 1561 1561 1561 1561 1561 1561 1560 1560 1559 1559 1558 1557 1556 1555 1554 1553 1552 1551 1549 1548 1547 1546 1544 1543 1541 1540 1538 1537 1535
1558 1558 1559 1558 1558 1559 1559 1559 1559 1559 1560 1560 1560 1560 1560 1560 1559 1558 1558 1557 1557 1555 1554 1553 1552 1551 1550 1549 1548 1547 1545 1544 1543 1541 1540 1538 1536 1535
1557 1557 1558 1558 1558 1558 1557 1558 1558 1558 1558 1559 1559 1559 1559 1559 1558 1558 1557 1556 1556 1555 1554 1552 1551 1550 1549 1548 1547 1546 1545 1543 1542 1540 1539 1537 1535 1534
1556 1556 1556 1557 1557 1557 1556 1557 1557 1557 1557 1558 1558 1558 1558 1557 1557 1557 1557 1556 1555 1554 1553 1552 1550 1549 1548 1547 1546 1544 1543 1542 1540 1539 1537 1536 1534 1532
1554 1555 1555 1555 1555 1555 1555 1555 1555 1555 1556 1556 1556 1556 1556 1556 1556 1555 1555 1555 1554 1553 1552 1551 1549 1548 1547 1545 1544 1543 1541 1540 1538 1537 1535 1534 1532 1530
1553 1553 1553 1553 1553 1553 1553 1554 1554 1554 1555 1555 1555 1555 1555 1554 1554 1553 1553 1553 1552 1551 1550 1549 1548 1546 1545 1543 1542 1540 1539 1537 1536 1534 1533 1531 1529 1528
1551 1551 1551 1551 1551 1551 1551 1551 1552 1552 1552 1553 1552 1552 1552 1552 1551 1551 1551 1550 1550 1549 1547 1546 1545 1544 1543 1541 1539 1538 1536 1535 1533 1531 1530 1528 1526 1525
1548 1549 1549 1549 1549 1549 1549 1549 1549 1549 1549 1549 1549 1549 1549 1549 1549 1549 1548 1547 1547 1546 1545 1544 1543 1541 1540 1538 1536 1535 1533 1531 1530 1528 1526 1524 1523 1521
1545 1546 1546 1546 1546 1547 1547 1547 1547 1546 1546 1546 1546 1546 1545 1545 1545 1545 1545 1545 1544 1543 1541 1540 1539 1538 1536 1535 1533 1531 1529 1528 1526 1524 1523 1521 1519 1517
1542 1542 1543 1543 1543 1544 1544 1544 1543 1543 1543 1542 1542 1542 1542 1542 1541 1541 1541 1541 1540 1540 1538 1537 1536 1535 1534 1532 1530 1528 1526 1524 1522 1520 1519 1517 1515 1513
1538 1538 1539 1540 1540 1540 1540 1541 1540 1541 1540 1539 1539 1539 1538 1538 1537 1537 1537 1537 1537 1536 1535 1533 1532 1531 1531 1529 1526 1524 1522 1520 1519 1516 1515 1513 1511 1509
1534 1535 1535 1536 1536 1536 1536 1537 1537 1537 1536 1536 1536 1535 1535 1534 1534 1533 1533 1532 1532 1531 1530 1529 1528 1527 1526 1524 1523 1521 1519 1517 1515 1513 1511 1508 1506 1504
1530 1531 1531 1532 1532 1532 1532 1533 1533 1533 1533 1532 1532 1531 1531 1530 1530 1529 1529 1528 1527 1527 1526 1525 1524 1523 1522 1520 1519 1517 1515 1513 1510 1508 1506 1504 1502 1500
1526 1527 1527 1528 1528 1528 1528 1528 1528 1528 1528 1528 1528 1527 1527 1526 1526 1525 1525 1524 1523 1522 1522 1520 1519 1518 1517 1515 1514 1512 1511 1508 1506 1504 1502 1499 1497 1495
1522 1522 1523 1523 1524 1524 1524 1524 1524 1524 1524 1524 1524 1523 1523 1522 1522 1521 1521 1520 1519 1518 1517 1516 1515 1513 1512 1511 1509 1507 1505 1504 1502 1499 1497 1494 1492 1490
1518 1518 1519 1519 1519 1519 1519 1519 1519 1519 1520 1520 1519 1519 1519 1518 1518 1517 1517 1516 1515 1514 1513 1512 1510 1509 1508 1506 1505 1502 1501 1499 1497 1495 1492 1490 1487 1485
1514 1514 1514 1515 1515 1515 1515 1515 1515 1515 1515 1515 1515 1514 1514 1514 1514 1513 1512 1512 1511 1510 1509 1508 1506 1505 1503 1501 1499 1498 1496 1494 1491 1489 1487 1484 1481 1479
1509 1509 1510 1510 1510 1510 1510 1510 1510 1510 1510 1510 1510 1510 1510 1510 1509 1509 1508 1508 1507 1506 1504 1503 1502 1500 1499 1497 1494 1492 1491 1489 1486 1484 1481 1478 1475 1473
1504 1505 1505 1505 1505 1506 1506 1506 1506 1506 1506 1505 1505 1505 1505 1505 1505 1504 1504 1503 1502 1501 1500 1499 1497 1496 1494 1492 1489 1487 1486 1484 1481 1479 1476 1473 1470 1467
1499 1500 1500 1501 1501 1501 1501 1501 1501 1501 1501 1500 1500 1500 1500 1500 1499 1499 1499 1498 1497 1496 1495 1494 1492 1491 1489 1487 1484 1482 1480 1478 1476 1473 1471 1469 1466 1461
1494 1495 1495 1496 1496 1496 1496 1496 1496 1496 1496 1496 1495 1495 1495 1495 1494 1494 1493 1493 1492 1491 1490 1488 1487 1486 1484 1482 1480 1477 1475 1473 1470 1468 1465 1463 1460 1457